Weather Roundup
Issued by NWS

Home | Current Version | Previous Version | Text Only | Print | Product List | Glossary On
Versions: 1 2 3 4 5 6 7 8 9 10 11 12 13 14 15 16 17 18 19 20 21 22 23 24 25 26 27 28 29 30 31 32 33 34 35 36 37 38 39 40 41 42 43 44 45 46 47 48 49 50
000
NZUS93 KARX 300910
HRRWXR

CURRENT HOURLY OBSERVATIONS ACROSS
MUCH OF THE UPPER MISSISSIPPI VALLEY
NATIONAL WEATHER SERVICE LA CROSSE WI
400 AM CDT SAT MAY 30 2015


...SOUTHEAST MINNESOTA...


CITY           SKY/WX    TMP DP  RH WIND       PRES   REMARKS
ROCHESTER      LGT RAIN  53  51  93 N16       30.03R
ROCHESTER/MAYO CLOUDY    52  52 100 NW7G16    30.04R
WINONA         CLOUDY    55  54  94 N6G18     30.01R
AUSTIN         CLOUDY    52  50  93 N14G23    30.03R
ALBERT LEA     CLOUDY    52  52 100 N13G22    30.05R
DODGE CENTER   DRIZZLE   52  50  93 N15       30.05R
PRESTON        CLOUDY    54  52  94 N18       30.00R
OWATONNA       CLOUDY    52  46  82 N20       30.07S
FARIBAULT      CLOUDY    52  46  82 N10       30.09R
$$

...ELSEWHERE IN MINNESOTA...


CITY           SKY/WX    TMP DP  RH WIND       PRES   REMARKS
MINNEAPOLIS    MOCLDY    50  41  71 N9        30.12R
INTNL FALLS    CLOUDY    37  29  72 N12       30.25R WCI  29
DULUTH         PTCLDY    44  36  73 N10       30.13R
RED WING       CLOUDY    54  48  82 N14       30.07R
REDWOOD FALLS  CLEAR     47  42  83 N9        30.17R
MANKATO        CLOUDY    52  43  71 N20G25    30.10S
WORTHINGTON    PTCLDY    46  39  76 N17G23    30.14S
FAIRMONT       PTCLDY    50  43  76 N17       30.09R
$$

...SOUTHWEST WISCONSIN...


CITY           SKY/WX    TMP DP  RH WIND       PRES   REMARKS
LA CROSSE      LGT RAIN  61  57  87 N15       29.96R
PRAIRIE DU CHI CLOUDY    67  64  90 SW3       29.89S
BOSCOBEL       LGT RAIN  67  65  93 CALM      29.90S
LONE ROCK      CLOUDY    67  65  93 CALM      29.90S
PLATTEVILLE    CLOUDY    65  64  96 SW6       29.92S
FORT MC COY    DRIZZLE   58  57  95 N9        29.96R
VIROQUA        CLOUDY    59  59 100 N15       29.94R
WIS DELLS      CLOUDY    63  62  94 CALM      29.90F
$$

...ELSEWHERE IN WISCONSIN...


CITY           SKY/WX    TMP DP  RH WIND       PRES   REMARKS
MILWAUKEE      CLOUDY    66  63  90 CALM      29.91S
MADISON        CLOUDY    66  63  90 CALM      29.90S
GREEN BAY      LGT RAIN  59  57  93 NE14      29.95R
EAU CLAIRE     CLOUDY    52  47  83 N12G20    30.03R
BLACK RVR FLS  DRIZZLE   58  58 100 N7        29.97R
MEDFORD        CLOUDY    50  48  94 N12G20    30.01S
WAUSAU         CLOUDY    57  54  89 N8        29.97R
WIS RAPIDS     LGT RAIN  59  56  89 NE14G20   29.96R
MARSHFIELD     LGT RAIN  57  53  86 N12       29.98R
RICE LAKE      MOCLDY    49  43  79 N12G23    30.09S
$$

...NORTHEAST IOWA...


CITY           SKY/WX    TMP DP  RH WIND       PRES   REMARKS
DECORAH        CLOUDY    59  59 100 N13G21    29.94S
MASON CITY     CLOUDY    54  51  90 N18G31    30.03S
CHARLES CITY   CLOUDY    55  55 100 N21G26    29.99R FOG
OELWEIN        CLOUDY    63  61  94 N15G22    29.94S
$$

...ELSEWHERE IN IOWA...


CITY           SKY/WX    TMP DP  RH WIND       PRES   REMARKS
DES MOINES     CLOUDY    58  54  86 N12       29.99R
IOWA CITY      CLOUDY    67  63  87 SW5       29.93F
FORT DODGE     CLOUDY    52  48  87 N8        30.05R
$$

...NORTHERN ILLINOIS...


CITY           SKY/WX    TMP DP  RH WIND       PRES   REMARKS
CHICAGO-OHARE  CLOUDY    69  65  86 W6        29.93S
CHICAGO-MIDWAY CLOUDY    71  66  84 SW9       29.93S
MOLINE         CLOUDY    67  63  87 S6        29.92F
ROCKFORD       LGT RAIN  67  64  90 SW8       29.95R
PEORIA         LGT RAIN  69  64  84 W5        29.96S
$$

NOTE: "FAIR" INDICATES FEW OR NO CLOUDS BELOW 12,000 FEET WITH NO
SIGNIFICANT WEATHER AND/OR OBSTRUCTIONS TO VISIBILITY. WIND
SPEEDS ARE IN MILES-PER-HOUR.



USA.gov is the U.S. government's official web portal to all federal, state and local government web resources and services.